• Join FlightAware (Why Join?)
  • Login
  • US Flag GB Flag 
16:09 EDT


 

Airport Tracker/Info


-or-


 

Live Flight TrackerFlight Track Log ✈ SWA3247 ✈ 03-Jul-2013 ✈ KLAS - KALB

Flight Track Log - Related Links

Times and Time Zones

All times are in EDT time to prevent confusion due to time zone crossing. See the SWA3247 flight status page for this flight to view local times or setup timezone preferences in your user account.

Time Position Orientation Groundspeed Altitude Reporting Facility
EDT Latitude Longitude Course Direction KTS MPH feet Rate Location/Type
20:38 36.0767 -115.1014 92° East 184 212 3,200  Level Los Angeles Center
20:38 36.0758 -115.0672 92° East 197 227 3,700 1,140 Climbing Los Angeles Center
20:39 36.0767 -115.0133 89° East 229 264 4,500 2,040 Climbing Los Angeles Center
20:40 36.0792 -114.9150 88° East 272 313 7,100 2,520 Climbing Los Angeles Center
20:41 36.0975 -114.8156 77° East 295 339 9,800 1,980 Climbing Los Angeles Center
20:42 36.1167 -114.7092 77° East 315 362 11,200 1,740 Climbing Los Angeles Center
20:43 36.1375 -114.5853 78° East 363 418 13,500 2,460 Climbing Los Angeles Center
20:44 36.1608 -114.4350 79° East 370 426 16,800 2,700 Climbing Los Angeles Center
20:45 36.1867 -114.2814 78° East 379 436 19,800 2,400 Climbing Los Angeles Center
20:46 36.2047 -114.1453 81° East 398 458 21,800 1,620 Climbing Los Angeles Center
20:47 36.2222 -114.0039 81° East 412 474 23,500 1,560 Climbing Los Angeles Center
20:48 36.2425 -113.8261 82° East 432 497 25,400 1,800 Climbing Los Angeles Center
20:49 36.2639 -113.6414 82° East 450 518 27,300 1,620 Climbing Los Angeles Center
20:50 36.2825 -113.4858 82° East 456 525 28,800 1,680 Climbing Los Angeles Center
20:51 36.3000 -113.3272 82° East 463 533 30,800 1,680 Climbing Los Angeles Center
20:53 36.3253 -113.1875 77° East 454 522 32,700 1,680 Climbing Los Angeles Center
20:54 36.3956 -112.9986 65° Northeast 434 499 34,700 1,500 Climbing Los Angeles Center
20:55 36.4472 -112.8625 65° Northeast 436 502 35,900 1,080 Climbing Los Angeles Center
20:56 36.4969 -112.7256 66° East 436 502 37,000 480 Climbing Los Angeles Center
20:57 36.5469 -112.5892 65° Northeast 436 502 37,000  Level Los Angeles Center
20:58 36.5958 -112.4553 66° East 431 496 37,000  Level Los Angeles Center
20:59 36.6553 -112.2917 66° East 434 499 37,000  Level Los Angeles Center
21:00 36.7044 -112.1556 66° East 433 498 37,000  Level Los Angeles Center
21:01 36.7533 -112.0203 66° East 431 496 37,000  Level Los Angeles Center
21:02 36.8036 -111.8831 65° Northeast 435 501 37,000  Level Los Angeles Center
21:03 36.8500 -111.7503 66° East 426 490 37,000  Level Los Angeles Center
21:04 36.8889 -111.6431 66° East 424 488 37,000  Level Los Angeles Center
21:05 36.9489 -111.4797 65° Northeast 427 491 37,000  Level Denver Center
21:06 36.9964 -111.3469 66° East 423 487 37,000  Level Denver Center
21:07 37.0472 -111.1917 68° East 411 473 37,000  Level Denver Center
21:08 37.0933 -111.0608 66° East 412 474 37,000  Level Denver Center
21:09 37.1389 -110.9294 66° East 412 474 37,000  Level Denver Center
21:10 37.1833 -110.7997 67° East 408 470 37,000  Level Denver Center
21:11 37.2286 -110.6686 67° East 410 472 37,000  Level Denver Center
21:12 37.2747 -110.5342 67° East 420 483 37,000  Level Denver Center
21:13 37.3289 -110.3750 67° East 416 479 37,000  Level Denver Center
21:14 37.3731 -110.2447 67° East 408 470 37,000  Level Denver Center
21:15 37.4211 -110.1028 67° East 413 475 37,000  Level Denver Center
21:16 37.4633 -109.9781 67° East 407 468 37,000  Level Denver Center
21:17 37.5056 -109.8514 67° East 408 470 37,000  Level Denver Center
21:18 37.5547 -109.7039 67° East 408 470 37,000  Level Denver Center
21:19 37.5972 -109.5764 67° East 410 472 37,000  Level Denver Center
21:21 37.6456 -109.4286 68° East 408 470 37,000  Level Denver Center
21:22 37.6878 -109.3033 67° East 406 467 37,000  Level Denver Center
21:23 37.7353 -109.1558 68° East 405 466 37,000  Level Denver Center
21:24 37.7756 -109.0303 68° East 403 464 37,000  Level Denver Center
21:25 37.8231 -108.8814 68° East 407 468 37,000  Level Denver Center
21:26 37.8642 -108.7544 68° East 406 467 37,000  Level Denver Center
21:27 37.9047 -108.6250 68° East 410 472 37,000  Level Denver Center
21:28 37.9514 -108.4789 68° East 405 466 37,000  Level Denver Center
21:29 37.9922 -108.3506 68° East 407 468 37,000  Level Denver Center
21:30 38.0383 -108.1989 69° East 412 474 37,000  Level Denver Center
21:31 38.0842 -108.0553 68° East 408 470 37,000  Level Denver Center
21:32 38.1236 -107.9283 68° East 405 466 37,000  Level Denver Center
21:33 38.1628 -107.7997 69° East 409 471 37,000  Level Denver Center
21:34 38.2086 -107.6517 68° East 405 466 37,000  Level Denver Center
21:35 38.2483 -107.5233 68° East 407 468 37,000  Level Denver Center
21:36 38.2928 -107.3744 69° East 406 467 37,000  Level Denver Center
21:37 38.3311 -107.2481 69° East 402 463 37,000  Level Denver Center
21:38 38.3750 -107.1028 69° East 394 453 37,000  Level Denver Center
21:39 38.4150 -106.9714 69° East 397 457 37,000  Level Denver Center
21:40 38.4525 -106.8431 70° East 388 447 37,000  Level Denver Center
21:41 38.4922 -106.7122 69° East 394 453 37,000  Level Denver Center
21:42 38.5311 -106.5792 69° East 401 461 37,000  Level Denver Center
21:43 38.5697 -106.4472 69° East 399 459 37,000  Level Denver Center
21:44 38.6164 -106.2878 69° East 401 461 37,000  Level Denver Center
21:45 38.6500 -106.1708 70° East 402 463 37,000  Level Denver Center
21:46 38.6975 -106.0094 69° East 406 467 37,000  Level Denver Center
21:47 38.7347 -105.8767 70° East 399 459 37,000  Level Denver Center
21:48 38.7739 -105.7422 69° East 403 464 37,000  Level Denver Center
21:49 38.8136 -105.6058 69° East 408 470 37,000  Level Denver Center
21:50 38.8514 -105.4681 71° East 412 474 37,000  Level Denver Center
21:51 38.8997 -105.2964 70° East 425 489 37,000  Level Denver Center
21:53 38.9394 -105.1553 70° East 426 490 37,000  Level Denver Center
21:54 38.9864 -105.0214 66° East 415 478 37,000  Level Denver Center
21:55 39.0314 -104.8906 66° East 407 468 37,000  Level Denver Center
21:56 39.0775 -104.7611 65° Northeast 403 464 37,000  Level Denver Center
21:57 39.1214 -104.6306 67° East 399 459 37,000  Level Denver Center
21:58 39.1647 -104.4633 71° East 413 475 37,000  Level Denver Center
21:59 39.2011 -104.3239 71° East 414 476 37,000  Level Denver Center
22:00 39.2389 -104.1847 71° East 415 478 37,000  Level Denver Center
22:01 39.2758 -104.0464 71° East 412 474 37,000  Level Denver Center
22:02 39.3114 -103.9072 72° East 411 473 37,000  Level Denver Center
22:03 39.3553 -103.7397 71° East 412 474 37,000  Level Denver Center
22:04 39.3922 -103.6019 71° East 409 471 37,000  Level Denver Center
22:05 39.4272 -103.4608 72° East 413 475 37,000  Level Denver Center
22:06 39.4642 -103.3217 71° East 411 473 37,000  Level Denver Center
22:07 39.4981 -103.1792 73° East 416 479 37,000  Level Denver Center
22:08 39.5364 -103.0078 74° East 414 476 37,000  Level Denver Center
22:09 39.5678 -102.8656 74° East 412 474 37,000  Level Denver Center
22:10 39.5983 -102.7231 74° East 411 473 37,000  Level Denver Center
22:11 39.6319 -102.5772 73° East 410 472 37,000  Level Denver Center
22:12 39.6608 -102.4386 75° East 415 478 37,000  Level Denver Center
22:13 39.6961 -102.2789 74° East 415 478 37,000  Level Denver Center
22:14 39.7264 -102.1403 74° East 417 480 37,000  Level Denver Center
22:15 39.7603 -101.9769 75° East 419 482 37,000  Level Denver Center
22:16 39.7903 -101.8400 74° East 415 478 37,000  Level Denver Center
22:17 39.8236 -101.6769 75° East 417 480 37,000  Level Denver Center
22:18 39.8528 -101.5403 74° East 412 474 37,000  Level Denver Center
22:19 39.8761 -101.4258 75° East 411 473 37,000  Level Denver Center
22:20 39.9142 -101.2428 75° East 411 473 37,000  Level Denver Center
22:21 39.9461 -101.0836 75° East 409 471 37,000  Level Denver Center
22:22 39.9742 -100.9511 75° East 401 461 37,000  Level Denver Center
22:24 40.0056 -100.7939 75° East 403 464 37,000  Level Denver Center
22:25 40.0325 -100.6578 75° East 406 467 37,000  Level Denver Center
22:26 40.0594 -100.5225 75° East 404 465 37,000  Level Denver Center
22:27 40.0903 -100.3644 76° East 404 465 37,000  Level Denver Center
22:28 40.1172 -100.2292 75° East 405 466 37,000  Level Denver Center
22:29 40.1486 -100.0708 75° East 405 466 37,000  Level Denver Center
22:30 40.1744 -99.9336 76° East 407 468 37,000  Level Denver Center
22:31 40.2064 -99.7722 75° East 407 468 37,000  Level Denver Center
22:32 40.2331 -99.6286 76° East 408 470 37,000  Level Denver Center
22:33 40.2600 -99.4839 76° East 408 470 37,000  Level Denver Center
22:34 40.2875 -99.3383 76° East 413 475 37,000  Level Denver Center
22:35 40.3147 -99.1903 76° East 420 483 37,000  Level Denver Center
22:36 40.3419 -99.0436 76° East 420 483 37,000  Level Minneapolis Center
22:37 40.3692 -98.8939 77° East 424 488 37,000  Level Minneapolis Center
22:38 40.3967 -98.7453 76° East 422 486 37,000  Level Minneapolis Center
22:39 40.4231 -98.5958 77° East 422 486 37,000  Level Minneapolis Center
22:40 40.4500 -98.4489 76° East 419 482 37,000  Level Minneapolis Center
22:41 40.4758 -98.2983 77° East 422 486 37,000  Level Minneapolis Center
22:42 40.5022 -98.1503 77° East 421 484 37,000  Level Minneapolis Center
22:43 40.5339 -97.9697 77° East 423 487 37,000  Level Minneapolis Center
22:44 40.5594 -97.8203 77° East 422 486 37,000  Level Minneapolis Center
22:45 40.5800 -97.6992 77° East 425 489 37,000  Level Minneapolis Center
22:46 40.6117 -97.5156 77° East 428 493 37,000  Level Minneapolis Center
22:47 40.6400 -97.3494 77° East 429 494 37,000  Level Minneapolis Center
22:48 40.6650 -97.1950 78° East 430 495 37,000  Level Minneapolis Center
22:49 40.6906 -97.0414 78° East 431 496 37,000  Level Minneapolis Center
22:50 40.7150 -96.8889 78° East 429 494 37,000  Level Minneapolis Center
22:51 40.7408 -96.7367 77° East 428 493 37,000  Level Minneapolis Center
22:52 40.7647 -96.5839 78° East 428 493 37,000  Level Minneapolis Center
22:53 40.7892 -96.4317 78° East 427 491 37,000  Level Minneapolis Center
22:54 40.8139 -96.2800 78° East 426 490 37,000  Level Minneapolis Center
22:55 40.8375 -96.1286 78° East 424 488 37,000  Level Minneapolis Center
22:56 40.8653 -95.9461 79° East 426 490 37,000  Level Minneapolis Center
22:57 40.8886 -95.7931 79° East 427 491 37,000  Level Minneapolis Center
22:58 40.9131 -95.6378 78° East 432 497 37,000  Level Minneapolis Center
22:59 40.9358 -95.4797 79° East 438 504 37,000  Level Minneapolis Center
23:00 40.9603 -95.3231 78° East 439 505 37,000  Level Minneapolis Center
23:01 40.9844 -95.1656 78° East 438 504 37,000  Level Minneapolis Center
23:02 41.0069 -95.0097 79° East 435 501 37,000  Level Minneapolis Center
23:03 41.0286 -94.8528 80° East 435 501 37,000  Level Minneapolis Center
23:04 41.0558 -94.6661 79° East 432 497 37,000  Level Minneapolis Center
23:05 41.0753 -94.5308 79° East 431 496 37,000  Level Minneapolis Center
23:06 41.0956 -94.3769 80° East 429 494 37,000  Level Minneapolis Center
23:07 41.1175 -94.2231 79° East 428 493 37,000  Level Minneapolis Center
23:08 41.1439 -94.0386 79° East 428 493 37,000  Level Minneapolis Center
23:09 41.1631 -93.8828 81° East 429 494 37,000  Level Minneapolis Center
23:10 41.1850 -93.7261 79° East 432 497 37,000  Level Minneapolis Center
23:11 41.2069 -93.5689 79° East 435 501 37,000  Level Minneapolis Center
23:13 41.2278 -93.4097 80° East 439 505 37,000  Level Minneapolis Center
23:14 41.2531 -93.2206 80° East 437 503 37,000  Level Minneapolis Center
23:15 41.2739 -93.0606 80° East 440 506 37,000  Level Minneapolis Center
23:16 41.2947 -92.8986 80° East 445 512 37,000  Level Minneapolis Center
23:17 41.3153 -92.7350 80° East 447 514 37,000  Level Chicago Center
23:18 41.3344 -92.5708 81° East 450 518 37,000  Level Chicago Center
23:19 41.3542 -92.4081 81° East 448 516 37,000  Level Chicago Center
23:20 41.3750 -92.2422 80° East 450 518 37,000  Level Chicago Center
23:21 41.4053 -92.0828 76° East 450 518 37,000  Level Chicago Center
23:22 41.4375 -91.9219 75° East 454 522 37,000  Level Chicago Center
23:23 41.4672 -91.7258 79° East 455 524 37,000  Level Chicago Center
23:24 41.4914 -91.5639 79° East 453 521 37,000  Level Chicago Center
23:25 41.5158 -91.4000 79° East 455 524 37,000  Level Chicago Center
23:26 41.5400 -91.2350 79° East 459 528 37,000  Level Chicago Center
23:27 41.5647 -91.0708 79° East 459 528 37,000  Level Chicago Center
23:28 41.5892 -90.9050 79° East 462 532 37,000  Level Chicago Center
23:29 41.6133 -90.7378 79° East 464 534 37,000  Level Chicago Center
23:30 41.6386 -90.5536 80° East 463 533 37,000  Level Chicago Center
23:31 41.6625 -90.3825 79° East 466 536 37,000  Level Chicago Center
23:32 41.6869 -90.2122 79° East 465 535 37,000  Level Chicago Center
23:33 41.7100 -90.0411 80° East 465 535 37,000 120 Level Chicago Center
23:34 41.7350 -89.8667 79° East 473 544 37,300 780 Climbing Chicago Center
23:35 41.7578 -89.6917 80° East 476 548 38,700 780 Climbing Chicago Center
23:36 41.7844 -89.4931 80° East 474 545 39,000 120 Climbing Chicago Center
23:37 41.8064 -89.3189 80° East 473 544 39,000  Level Chicago Center
23:38 41.8283 -89.1467 80° East 473 544 39,000  Level Chicago Center
23:39 41.8503 -88.9747 80° East 470 541 39,000  Level Chicago Center
23:40 41.8717 -88.8000 81° East 474 545 39,000  Level Chicago Center
23:41 41.8933 -88.6256 80° East 475 547 39,000  Level Chicago Center
23:42 41.9153 -88.4522 80° East 473 544 39,000  Level Chicago Center
23:43 41.9364 -88.2761 81° East 475 547 39,000 -300 Level Chicago Center
23:44 41.9589 -88.0975 80° East 481 554 38,500 -840 Descending Chicago Center
23:45 41.9836 -87.8836 81° East 483 556 37,400 -780 Descending Chicago Center
23:46 42.0033 -87.7050 81° East 483 556 37,000 -240 Descending Chicago Center
23:47 42.0242 -87.5283 81° East 480 552 37,000  Level Chicago Center
23:48 42.0442 -87.3531 81° East 477 549 37,000  Level Chicago Center
23:49 42.0636 -87.1767 81° East 478 550 37,000  Level Chicago Center
23:50 42.0833 -87.0025 81° East 475 547 37,000  Level Chicago Center
23:51 42.1022 -86.8267 82° East 476 548 37,000  Level Chicago Center
23:52 42.1200 -86.6508 82° East 478 550 37,000  Level Chicago Center
23:53 42.1386 -86.4742 82° East 478 550 37,000  Level Chicago Center
23:54 42.1578 -86.2969 82° East 478 550 37,000  Level Chicago Center
23:55 42.1758 -86.1189 82° East 478 550 37,000  Level Chicago Center
23:56 42.1953 -85.9211 82° East 476 548 37,000  Level Chicago Center
23:57 42.2119 -85.7436 83° East 480 552 37,000  Level Chicago Center
23:58 42.2292 -85.5669 82° East 480 552 37,000  Level Chicago Center
23:59 42.2461 -85.3872 83° East 485 558 37,000  Level Chicago Center
00:01 42.2708 -85.1342 82° East 491 565 37,000  Level Chicago Center
00:02 42.2881 -84.9550 83° East 487 560 37,000  Level Chicago Center
00:03 42.3028 -84.7781 84° East 478 550 37,000  Level Chicago Center
00:04 42.3186 -84.6039 83° East 473 544 37,000  Level Chicago Center
00:05 42.3344 -84.4289 83° East 473 544 37,000  Level Chicago Center
00:06 42.3478 -84.2414 84° East 474 545 37,000  Level Cleveland Center
00:07 42.3617 -84.0650 84° East 474 545 37,000  Level Cleveland Center
00:08 42.3772 -83.8889 83° East 474 545 37,000  Level Cleveland Center
00:09 42.3925 -83.7153 83° East 474 545 37,000  Level Cleveland Center
00:10 42.4036 -83.5331 85° East 474 545 37,000  Level Cleveland Center
00:11 42.4189 -83.3394 84° East 480 552 37,000  Level Cleveland Center
00:12 42.4336 -83.1544 84° East 481 554 37,000  Level Cleveland Center
00:13 42.4456 -82.9778 85° East 481 554 37,000  Level Cleveland Center
00:14 42.4597 -82.7953 84° East 481 554 37,000  Level Cleveland Center
00:15 42.4736 -82.6100 84° East 481 554 37,000  Level Cleveland Center
00:16 42.4850 -82.4303 85° East 481 554 37,000  Level Cleveland Center
00:17 42.4961 -82.2503 85° East 481 554 37,000  Level Cleveland Center
00:18 42.5089 -82.0675 85° East 481 554 37,000  Level Cleveland Center
00:19 42.5194 -81.8875 85° East 481 554 37,000  Level Cleveland Center
00:20 42.5336 -81.7244 83° East 481 554 37,000  Level Cleveland Center
00:21 42.5436 -81.5442 86° East 481 554 37,000  Level Cleveland Center
00:22 42.5533 -81.3611 86° East 481 554 37,000  Level Cleveland Center
00:23 42.5672 -81.1639 84° East 476 548 37,000  Level Cleveland Center
00:24 42.5761 -80.9836 86° East 481 554 37,000  Level Cleveland Center
00:25 42.5872 -80.8031 85° East 481 554 37,000  Level Cleveland Center
00:26 42.5956 -80.6256 86° East 476 548 37,000  Level Cleveland Center
00:27 42.6061 -80.4422 85° East 476 548 37,000  Level Cleveland Center
00:28 42.6139 -80.2617 87° East 476 548 37,000  Level Cleveland Center
00:29 42.6239 -80.0808 86° East 481 554 37,000  Level Cleveland Center
00:30 42.6314 -79.9200 86° East 481 554 37,000  Level Cleveland Center
00:31 42.6406 -79.7392 86° East 476 548 37,000  Level Cleveland Center
00:32 42.6475 -79.5614 87° East 476 548 37,000  Level Cleveland Center
00:33 42.6561 -79.3806 86° East 476 548 37,000  Level Cleveland Center
00:34 42.6644 -79.2025 86° East 476 548 37,000  Level Cleveland Center
00:35 42.6686 -79.0189 88° East 476 548 37,000  Level Cleveland Center
00:36 42.6764 -78.8381 87° East 476 548 37,000  Level Cleveland Center
00:37 42.6817 -78.6542 88° East 476 548 37,000  Level Cleveland Center
00:38 42.6889 -78.4675 87° East 481 554 37,000  Level Cleveland Center
00:39 42.6939 -78.2867 88° East 481 554 37,000  Level Cleveland Center
00:40 42.7003 -78.0997 87° East 481 554 37,000  Level Cleveland Center
00:41 42.7067 -77.9217 87° East 481 554 37,000  Level Cleveland Center
00:42 42.7125 -77.7264 88° East 476 548 37,000  Level Cleveland Center
00:43 42.7144 -77.5539 89° East 482 555 37,000  Level Cleveland Center
00:44 42.7192 -77.3500 88° East 492 566 37,000 -1,380 Level Cleveland Center
00:46 42.7247 -77.0281 89° East 478 550 33,200 -2,460 Descending Boston Center
00:47 42.7297 -76.8444 88° East 478 550 30,200 -2,100 Descending Boston Center
00:48 42.7328 -76.6608 89° East 478 550 29,000 -600 Descending Boston Center
00:49 42.7372 -76.4803 88° East 478 550 29,000  Level Boston Center
00:50 42.7392 -76.3022 89° East 478 550 29,000 -60 Level Boston Center
00:51 42.7403 -76.1411 89° East 478 550 28,900 -120 Descending Boston Center
00:52 42.7481 -75.9661 86° East 468 539 28,800 -1,500 Descending Boston Center
00:53 42.7589 -75.7461 86° East 474 545 25,600 -3,000 Descending Boston Center
00:54 42.7664 -75.5483 87° East 476 548 22,800 -2,520 Descending Boston Center
00:55 42.7728 -75.3875 87° East 451 519 20,600 -2,100 Descending Boston Center
00:56 42.7789 -75.2267 87° East 430 495 18,600 -2,040 Descending Boston Center
00:57 42.7847 -75.0769 87° East 414 476 16,600 -2,100 Descending Boston Center
00:57 42.7864 -74.9978 88° East 408 470 15,500 -2,160 Descending Boston Center
00:58 42.7936 -74.8650 86° East 384 442 13,600 -2,040 Descending Boston Center
00:59 42.7972 -74.7831 87° East 381 438 12,500 -1,680 Descending Boston Center
01:00 42.7956 -74.6642 91° East 370 426 11,000 -900 Descending Boston Center
01:01 42.7939 -74.5253 91° East 339 390 10,700 -840 Descending Boston Center
01:02 42.8000 -74.4208 85° East 314 361 9,400 -1,440 Descending Boston Center
01:03 42.8061 -74.2967 86° East 304 350 7,900 -1,380 Descending Boston Center
01:04 42.8100 -74.1947 87° East 298 343 6,700 -1,200 Descending Boston Center
01:05 42.8136 -74.0986 87° East 288 331 5,600 -1,440 Descending Boston Center
01:05 42.8167 -74.0253 87° East 280 322 4,600 -1,320 Descending Boston Center
01:06 42.8214 -73.9886 80° East 282 325 4,300 -720 Descending Boston Center
01:06 42.8222 -73.9261 89° East 260 299 3,900 -600 Descending Boston Center
01:07 42.8244 -73.8981 84° East 261 300 3,700 -1,140 Descending Boston Center
01:07 42.8294 -73.8500 82° East 187 215 2,800 -1,680 Descending Boston Center
01:08 42.8111 -73.8069 120° Southeast 155 178 1,200 -1,140 Descending Boston Center
01:09 42.7736 -73.8092 182° South 122 140 600 -600 Descending Boston Center